Regional Weather Roundup
Issued by NWS New Orleans/Baton Rouge, LA

Home | Current Version | Previous Version | Graphics & Text | Print | Product List | Glossary On
Versions: 1 2 3 4 5 6 7 8 9 10 11 12 13 14 15 16 17 18 19 20 21 22 23 24 25 26 27 28 29 30 31 32 33 34 35 36 37 38 39 40 41 42 43 44 45 46 47 48 49 50
925
ASUS44 KLIX 010710
RWRLIX
NEW ORLEANS REGIONAL WEATHER ROUNDUP
NATIONAL WEATHER SERVICE NEW ORLEANS LA
200 AM CDT SAT NOV 01 2014

NOTE: "FAIR" INDICATES FEW OR NO CLOUDS BELOW 12,000 FEET WITH NO
      SIGNIFICANT WEATHER AND/OR OBSTRUCTIONS TO VISIBILITY.
      SKY/WX - SKY CONDITION AND SIGNIFICANT WEATHER.
      TMP - AIR TEMPERATURE.     DP    - DEWPOINT TEMPERATURE.
      RH  - RELATIVE HUMIDITY.   PRES  - PRESSURE.
      HI  - HEAT INDEX.          WCI   - WIND CHILL INDEX.

*  THESE STATIONS ARE NOT NWS OR FAA STATIONS AND ARE NOT UNDER
   NWS QUALITY CONTROL.

LAZ038-040-048-061>063-065>067-069-010800-
SOUTHEAST LOUISIANA

CITY           SKY/WX    TMP DP  RH WIND       PRES   REMARKS
N.O. AUDUBON     N/A     57  38  48 MISG        N/A
N.O. INTL ARPT PTCLDY    56  40  55 N18G28    30.20S
N.O. LAKEFRONT CLEAR     57  41  55 N33       30.21R
N.O. DOWNTOWN*   N/A     55  36  47 N15G23    30.21R
SLIDELL        CLEAR     51  38  60 N14G24    30.20R
BATON ROUGE    CLEAR     51  41  68 VRB5      30.25R
BOOTHVILLE     CLEAR     58  42  55 N17G35    30.16R
BELLE CHASSE   CLEAR     56  37  49 N13G26    30.18S
BOGALUSA*        N/A     50  35  56 N10       30.25R
NEW ROADS*       N/A     49  41  73 N8        30.27R
GONZALES*        N/A     53  42  67 N10G21    30.23R
HAMMOND*       CLEAR     52  37  58 N10G20    30.25R
HOUMA*         CLEAR     54  42  64 N14G21    30.20R
PORT FOURCHON* NOT AVBL

$$

MSZ070-080>082-010800-
SOUTHERN MISSISSIPPI

CITY           SKY/WX    TMP DP  RH WIND       PRES   REMARKS
MCCOMB         CLEAR     48  23  37 N15G25    30.26R
GULFPORT       CLEAR     52  35  52 N20G30    30.18R
BILOXI         CLEAR     53  36  52 N24       30.18R
PASCAGOULA     CLEAR     50  33  52 N16G26    30.17R

$$

COASTAL OBSERVATIONS
LAKE AND NEARSHORE STATIONS

STATION/POSITION TIME  TEMP    WIND        PRES    WAVE
                       AIR SEA DIR/SP/G            HT/PER
                 (UTC) (F)     (DEG/KT/KT) (MB)    (FT/S)
PASCAGOULA       0700   53     360/ 18/ 27 1020.7
WAVELAND YACHT   0700   54      10/ 23/ 28 1021.5
GRAND ISLE       0700   58 69   20/ 23/ 34 1022.0
SOUTHWEST PASS   0700   60 77              1021.1
NEW CANAL        0700      67   10/ 25/ 31 1022.9
SHELL BEACH      0700   57 64  360/ 31/ 37 1021.8

OFFSHORE STATIONS

STATION/POSITION TIME  TEMP    WIND        PRES    WAVE
                       AIR SEA DIR/SP/G            HT/PER
                 (UTC) (F)     (DEG/KT/KT) (MB)    (FT/S)
64 S DAUPHIN ISL 0604   62 78  360/ 31/ 35 1019.2    8/ 7

$$




USA.gov is the U.S. government's official web portal to all federal, state and local government web resources and services.